Home   Weather   Alsfeld   Past weeks

Flag for Germany Past Weather in Alsfeld, Hesse, Germany — Yesterday and Last 2 Weeks

Now
49 °F

Fog.


Feels Like: 49 °F
Forecast: 56 / 70 °F
Wind: No wind

Location: Fritzlar

Current Time: Sep 28, 2016 at 3:57:41 AM

Latest Report: Sep 28, 2016 at 3:00 AM


Visibility: 7 mi

Pressure: 30.33 "Hg

Humidity: 97%

Dew Point: 48 °F

Location of AlsfeldLocation

Past Weather in Alsfeld — Graph

°F

Alsfeld Temperature Yesterday

Maximum temperature yesterday: 69 °F (at 4:00 PM)
Minimum temperature yesterday: 55 °F (at 10:00 PM)
Average temperature yesterday: 60 °F

High & Low Weather Summary for the Past Weeks

 TemperatureHumidityPressure
High88 °F (Sep 13, 6:00 PM)98% (Sep 25, 9:00 AM)30.34 "Hg (Sep 25, 9:00 AM)
Low39 °F (Sep 22, 7:00 AM)30% (Sep 14, 6:00 PM)29.81 "Hg (Sep 15, 6:00 PM)
Average61 °F73%30.09 "Hg
* Reported Sep 13 1:00 AM — Sep 28 1:00 AM, Alsfeld, Weather by CustomWeather, © 2016

Note: Actual official high and low records may vary slightly from our data, if they occured in-between our weather recording intervals... More about our weather records

Advertising

Alsfeld Weather History for the Previous 24 Hours

Scroll right to see more
 ConditionsComfort  
Time TempWeatherWind HumidityBarometerVisibility
1:00 AM
Wed, Sep 28
52 °FFog.1 mph96%30.34 "Hg9 mi
12:00 AM51 °FFog.1 mph95%30.34 "Hg9 mi
10:00 PM
Tue, Sep 27
55 °FPassing clouds.1 mph94%30.34 "Hg12 mi
9:00 PM57 °FPassing clouds.1 mph89%30.33 "Hg16 mi
7:00 PM65 °FPassing clouds.1 mph75%30.30 "Hg16 mi
6:00 PM69 °FPassing clouds.3 mph57%30.29 "Hg16 mi
4:00 PM69 °FPassing clouds.1 mph60%30.29 "Hg16 mi
3:00 PM67 °FScattered clouds.N/A63%30.31 "Hg11 mi
1:00 PM63 °FPartly sunny.N/A78%30.31 "Hg11 mi
12:00 PM62 °FPartly sunny.1 mph79%30.32 "Hg9 mi
10:00 AM58 °FScattered clouds.2 mph92%30.32 "Hg7 mi
9:00 AM56 °FPartly sunny.2 mph95%30.29 "Hg6 mi
7:00 AM56 °FRain. Overcast.1 mph95%30.28 "Hg3 mi
6:00 AM56 °FThundershowers. Overcast.3 mph94%30.26 "Hg3 mi
4:00 AM57 °FLight rain. Overcast.2 mph88%30.24 "Hg12 mi
3:00 AM57 °FLight rain. Overcast.2 mph87%30.24 "Hg12 mi
Weather by CustomWeather, © 2016

See weather overviewHow to use our weather pages